sat.trackr.live / text

‹ back to catalog

ONEWEB-0213

NORAD 48790 · 2021-045Z

PAYLOAD ACTIVE UNKNOWN

§ Identity

Operator
Country
UK
Launch date
2021-05-28
Launch site
VOSTO
Launch vehicle
Mass (kg)
RCS (m²)

Purposes: comms

External: N2YO · Heavens-Above · Gunter

§ Orbital elements

Epoch: 2026-05-25T00:50:57.653664Z

Period
109.46 min
Inclination
87.8999°
Eccentricity
0.0001691
Mean motion
13.15550339 rev/d
Perigee alt
1,200.5 km
Apogee alt
1,203.0 km
Semi-major
7,579.9 km
B*
-5.8139e-5
RAAN
263.8049°
Arg perigee
92.1027°
Mean anomaly
268.0297°
Rev number
24,139

§ Raw data

ONEWEB-02131 48790U 21045Z   26145.03538951 -.00000009  00000+0 -58139-4 0  99922 48790  87.8999 263.8049 0001691  92.1027 268.0297 13.15550339241398

JSON: /api/v1/satellites/48790 · /tle

For live sub-satellite position, see the globe view (requires WebGL).

§ Visibility from observer

Set your observer location to see the next 7 days of passes ≥ 10°. The values pass through the URL so the page stays shareable.

No JS? Fill the form by hand. The geolocation button needs JavaScript.